sat.trackr.live / text

‹ back to catalog

STARLINK-30834

NORAD 58151 · 2023-166B

PAYLOAD ACTIVE UNKNOWN

§ Identity

Operator
Country
US
Launch date
2023-10-29
Launch site
AFWTR
Launch vehicle
Mass (kg)
RCS (m²)

Purposes: comms

External: N2YO · Heavens-Above · Gunter

§ Orbital elements

Epoch: 2026-09-20T14:31:23.193120Z

Period
93.85 min
Inclination
53.1590°
Eccentricity
0.0000805
Mean motion
15.34400183 rev/d
Perigee alt
462.2 km
Apogee alt
463.3 km
Semi-major
6,840.8 km
B*
4.8546e-4
RAAN
33.1923°
Arg perigee
77.1977°
Mean anomaly
282.9115°
Rev number
16,303

§ Raw data

STARLINK-308341 58151U 23166B   26263.60512955  .00016061  00000+0  48546-3 0  99932 58151  53.1590  33.1923 0000805  77.1977 282.9115 15.34400183163037

JSON: /api/v1/satellites/58151 · /tle

For live sub-satellite position, see the globe view (requires WebGL).

§ Visibility from observer

Set your observer location to see the next 7 days of passes ≥ 10°. The values pass through the URL so the page stays shareable.

No JS? Fill the form by hand. The geolocation button needs JavaScript.